This is the latest recevied weather packets stored in our database for station/object WA3NOA-2. If no packets are shown the sender has not sent any weather packets the latest 10 day(s).
| Time | Temp. | Humidity | Pressure | Rain* | Wind** | Luminosity | Snow |
|---|---|---|---|---|---|---|---|
| 1777644127 | 12.78° C | 56% | 1007.7 hPa | 0 mm | - | - | - |
| 1777643827 | 13.33° C | 58% | 1007.8 hPa | 0 mm | - | - | - |
| 1777643527 | 13.89° C | 59% | 1008 hPa | 0 mm | - | - | - |
| 1777643288 | 13.33° C | 59% | 1007.9 hPa | 0 mm | - | - | - |
| 1777643227 | 12.78° C | 56% | 1008 hPa | 0 mm | - | - | - |
| 1777642927 | 12.78° C | 60% | 1008 hPa | 0 mm | - | - | - |
| 1777642627 | 12.78° C | 58% | 1008 hPa | 0 mm | - | - | - |
| 1777642389 | 12.22° C | 65% | 1008.1 hPa | 0 mm | - | - | - |
| 1777642327 | 12.22° C | 64% | 1008.1 hPa | 0 mm | - | - | - |
| 1777642027 | 12.78° C | 62% | 1008.1 hPa | 0 mm | - | - | - |
| 1777641727 | 12.78° C | 64% | 1007.9 hPa | 0 mm | - | - | - |
| 1777641488 | 12.22° C | 66% | 1008 hPa | 0 mm | - | - | - |
| 1777641427 | 12.22° C | 66% | 1008.1 hPa | 0 mm | - | - | - |
| 1777641127 | 11.67° C | 67% | 1007.9 hPa | 0 mm | - | - | - |
| 1777640827 | 11.67° C | 65% | 1008 hPa | 0 mm | - | - | - |
| 1777640588 | 11.67° C | 66% | 1007.9 hPa | 0 mm | - | - | - |
| 1777640527 | 11.67° C | 65% | 1007.9 hPa | 0 mm | - | - | - |
| 1777640227 | 11.67° C | 70% | 1007.9 hPa | 0 mm | - | - | - |
| 1777639927 | 11.67° C | 68% | 1008 hPa | 0 mm | - | - | - |
| 1777639688 | 11.11° C | 69% | 1008.1 hPa | 0 mm | - | - | - |
| 1777639626 | 11.67° C | 69% | 1008 hPa | 0 mm | - | - | - |
| 1777639327 | 11.11° C | 70% | 1008 hPa | 0 mm | - | - | - |
| 1777639026 | 11.11° C | 70% | 1008 hPa | 0 mm | - | - | - |
| 1777638788 | 10.56° C | 72% | 1008 hPa | 0 mm | - | - | - |
| 1777638727 | 10.56° C | 73% | 1007.9 hPa | 0 mm | - | - | - |
* Rain latest hour (hover to see other rain measurements)
** Current wind speed in m/s (hover to see current wind gust speed)